ROMMA est une association bénévole à but non lucratif. Votre soutien est indispensable : ADHERER à ROMMA ou FAIRE un DON

Granges-lès-Beaumont - (26, Drôme)

Drôme des Collines (155 m)   Longitude: 04°58'E   Latitude: 45°03'N Station partenaire n°123
 

Détail journalier du     <<     >>

Température Precipitation Humidité Pression Vent Dir Rafale Dir. rafale Ensol.
Heure (°C) (mm) (%) (hPa) (km/h) (km/h) (min)
01:00 5.809410121---11ENE0
02:00 5.909010125NNE11NNE0
03:00 5.608910126N10NNE0
04:00 5.108710128NNO15NNE0
05:00 4.808710117NNO11NO0
06:00 4.408710118NNO16NO0
07:00 3.709010119NNO15NNO0
08:00 3.70.290101010NNO16NNO0
09:00 5.4088101111NNO18NNO0
10:00 8.107910109NNO18N0
11:00 10.6062101011N26NNE40
12:00 11.2058100914NNE26NNE20
13:00 11.7056100814N24NNE60
14:00 12.1056100713N26NNE60
15:00 12.3055100616NNE27NNE60
16:00 11.7061100615NNE29NNE0
17:00 10.2064100613NNE24NE0
18:00 8.6071100611NNE18NNE0
19:00 8.2072100612NNE19NE0
20:00 7.507610059NNE16NE0
21:00 7.307710055ENE16ENE0
22:00
23:00
minuit

Graphique du 12-11-2019

 

Serveur OMMA